Kelso-Longview, WA
on Saturday, December 15, 2012

Saturday
Previous Day Next Day
Daily Summary
 ActualAverage (KSPB)Record (KSPB)
Temperature
Mean Temperature °F °F  
Max Temperature 41°F °F 52°F (2002)
Min Temperature 37°F °F 14°F (2008)
Degree Days
Heating Degree Days 26    
Month to date heating degree days  
Since 1 July heating degree days  
Cooling Degree Days 0    
Month to date cooling degree days  
Year to date cooling degree days  
Moisture
Dew Point 34°F   
Average Humidity 85    
Maximum Humidity 93    
Minimum Humidity 76    
Precipitation
Precipitation 0.46 in in 1.19 in (2002)
Month to date precipitation  
Year to date precipitation  
Wind
Wind Speed 9 mph   
Max Wind Speed 17 mph   
Max Gust Speed 28 mph   
Visibility 10 miles   
Events     

Key: T is trace of precipitation, MM is missing value
Source: NWS Daily Summary
Time(PST)TemperatureDew PointHumidity Pressure Visibility Wind DirectionWind SpeedGust SpeedPrecipitationEvents Conditions
12:15 AM 39.2°F 35.6°F 87% 29.93 in 10.0 miles SE 5.8 mph - N/A   Overcast
12:35 AM 39.2°F 35.6°F 87% 29.93 in 10.0 miles ESE 5.8 mph - N/A   Overcast
12:55 AM 39.2°F 35.6°F 87% 29.92 in 10.0 miles SE 8.1 mph - N/A   Overcast
1:15 AM 41.0°F 35.6°F 81% 29.91 in 10.0 miles SSE 5.8 mph - N/A   Overcast
1:35 AM 39.2°F 35.6°F 87% 29.91 in 10.0 miles SSE 4.6 mph - N/A   Overcast
1:55 AM 39.2°F 35.6°F 87% 29.91 in 10.0 miles SSE 9.2 mph 18.4 mph N/A   Overcast
2:15 AM 39.2°F 35.6°F 87% 29.91 in 10.0 miles SSE 10.4 mph 17.3 mph N/A   Overcast
2:35 AM 39.2°F 35.6°F 87% 29.90 in 10.0 miles SSE 11.5 mph - N/A   Overcast
2:55 AM 39.2°F 35.6°F 87% 29.91 in 10.0 miles SSE 9.2 mph 18.4 mph N/A   Overcast
3:15 AM 39.2°F 35.6°F 87% 29.90 in 10.0 miles SSE 5.8 mph - N/A   Overcast
3:35 AM 39.2°F 33.8°F 81% 29.89 in 10.0 miles SSE 8.1 mph - N/A   Overcast
3:55 AM 39.2°F 35.6°F 87% 29.89 in 10.0 miles SSE 5.8 mph - N/A   Overcast
4:15 AM 39.2°F 33.8°F 81% 29.88 in 10.0 miles SE 8.1 mph - N/A   Overcast
4:35 AM 39.2°F 33.8°F 81% 29.86 in 10.0 miles SE 10.4 mph - N/A   Mostly Cloudy
4:55 AM 41.0°F 33.8°F 76% 29.85 in 10.0 miles SE 10.4 mph 16.1 mph N/A   Overcast
5:15 AM 41.0°F 33.8°F 76% 29.83 in 10.0 miles SE 15.0 mph 20.7 mph N/A   Overcast
5:35 AM 41.0°F 33.8°F 76% 29.82 in 10.0 miles SE 8.1 mph - N/A   Overcast
5:55 AM 41.0°F 33.8°F 76% 29.81 in 10.0 miles SSE 10.4 mph 17.3 mph N/A   Overcast
6:15 AM 41.0°F 33.8°F 76% 29.80 in 10.0 miles SSE 15.0 mph 19.6 mph N/A   Overcast
6:35 AM 39.2°F 33.8°F 81% 29.80 in 10.0 miles SSE 12.7 mph 21.9 mph N/A   Overcast
6:55 AM 39.2°F 35.6°F 87% 29.80 in 10.0 miles SSE 15.0 mph 19.6 mph N/A   Overcast
7:15 AM 39.2°F 33.8°F 81% 29.81 in 10.0 miles SSE 13.8 mph 18.4 mph N/A   Mostly Cloudy
7:35 AM 39.2°F 33.8°F 81% 29.81 in 10.0 miles SSE 10.4 mph 17.3 mph N/A   Overcast
7:55 AM 39.2°F 33.8°F 81% 29.81 in 10.0 miles SSE 10.4 mph - 0.01 in   Overcast
8:15 AM 39.2°F 33.8°F 81% 29.81 in 10.0 miles SE 11.5 mph 17.3 mph 0.01 in   Overcast
8:35 AM 39.2°F 33.8°F 81% 29.79 in 9.0 miles SE 9.2 mph 17.3 mph 0.02 in   Overcast
8:55 AM 39.2°F 33.8°F 81% 29.79 in 10.0 miles SE 12.7 mph 17.3 mph 0.03 in   Overcast
9:15 AM 39.2°F 33.8°F 81% 29.78 in 10.0 miles SE 15.0 mph 20.7 mph 0.01 in   Overcast
9:35 AM 39.2°F 33.8°F 81% 29.77 in 9.0 miles SE 15.0 mph 27.6 mph 0.03 in   Overcast
9:55 AM 37.4°F 33.8°F 87% 29.77 in 9.0 miles SE 16.1 mph 21.9 mph 0.07 in   Overcast
10:15 AM 37.4°F 32.0°F 81% 29.76 in 4.0 miles SE 11.5 mph 19.6 mph 0.05 in   Overcast
10:35 AM 37.4°F 33.8°F 87% 29.74 in 10.0 miles SE 6.9 mph - 0.06 in   Overcast
10:55 AM 37.4°F 33.8°F 87% 29.73 in 10.0 miles SSE 10.4 mph - 0.06 in   Overcast
11:15 AM 37.4°F 33.8°F 87% 29.71 in 10.0 miles SE 8.1 mph 16.1 mph 0.01 in   Overcast
11:35 AM 37.4°F 33.8°F 87% 29.70 in 10.0 miles SSE 11.5 mph 24.2 mph 0.01 in   Overcast
11:55 AM 37.4°F 33.8°F 87% 29.68 in 9.0 miles SSE 11.5 mph 17.3 mph 0.01 in   Overcast
12:15 PM 37.4°F 33.8°F 87% 29.67 in 10.0 miles SSE 13.8 mph 21.9 mph N/A   Overcast
12:35 PM 37.4°F 33.8°F 87% 29.66 in 9.0 miles SSE 15.0 mph 20.7 mph N/A   Overcast
12:55 PM 37.4°F 33.8°F 87% 29.64 in 9.0 miles SSE 17.3 mph 24.2 mph N/A   Mostly Cloudy
1:15 PM 39.2°F 35.6°F 87% 29.63 in 10.0 miles SSE 13.8 mph 18.4 mph 0.01 in   Overcast
1:35 PM 39.2°F 35.6°F 87% 29.61 in 10.0 miles SE 12.7 mph 21.9 mph 0.01 in   Overcast
1:55 PM 39.2°F 33.8°F 81% 29.61 in 10.0 miles SSE 11.5 mph 25.3 mph 0.01 in   Overcast
2:15 PM 39.2°F 35.6°F 87% 29.61 in 10.0 miles SSE 8.1 mph 18.4 mph 0.01 in   Overcast
2:35 PM 39.2°F 35.6°F 87% 29.61 in 10.0 miles SSE 16.1 mph 24.2 mph 0.03 in   Overcast
2:55 PM 39.2°F 35.6°F 87% 29.61 in 10.0 miles SE 13.8 mph 23.0 mph 0.04 in   Overcast
3:15 PM 39.2°F 35.6°F 87% 29.62 in 10.0 miles SE 11.5 mph 23.0 mph 0.01 in   Overcast
3:35 PM 39.2°F 35.6°F 87% 29.64 in 10.0 miles SSE 11.5 mph 16.1 mph 0.01 in   Overcast
3:55 PM 39.2°F 35.6°F 87% 29.65 in 10.0 miles SE 10.4 mph 17.3 mph 0.02 in   Overcast
4:15 PM 39.2°F 33.8°F 81% 29.65 in 10.0 miles SE 10.4 mph - 0.04 in   Overcast
4:35 PM 39.2°F 33.8°F 81% 29.65 in 10.0 miles SE 11.5 mph 17.3 mph 0.07 in   Overcast
4:55 PM 39.2°F 33.8°F 81% 29.66 in 10.0 miles SE 8.1 mph - 0.08 in   Mostly Cloudy
5:15 PM 37.4°F 33.8°F 87% 29.67 in 10.0 miles SE 8.1 mph - 0.01 in   Overcast
5:35 PM 37.4°F 33.8°F 87% 29.67 in 10.0 miles SE 6.9 mph - 0.01 in   Mostly Cloudy
5:55 PM 37.4°F 33.8°F 87% 29.67 in 10.0 miles SSE 5.8 mph - 0.01 in   Overcast
6:15 PM 39.2°F 33.8°F 81% 29.68 in 10.0 miles SE 6.9 mph - N/A   Overcast
6:35 PM 37.4°F 33.8°F 87% 29.69 in 7.0 miles SE 8.1 mph - 0.06 in   Overcast
6:55 PM 37.4°F 35.6°F 93% 29.70 in 10.0 miles SSE 9.2 mph - 0.06 in   Overcast
7:15 PM 37.4°F 33.8°F 87% 29.70 in 10.0 miles SSE 9.2 mph - N/A   Overcast
7:35 PM 37.4°F 33.8°F 87% 29.71 in 9.0 miles SE 10.4 mph 18.4 mph N/A   Overcast
7:55 PM 37.4°F 33.8°F 87% 29.72 in 10.0 miles SE 4.6 mph - 0.01 in   Mostly Cloudy
8:15 PM 37.4°F 33.8°F 87% 29.73 in 10.0 miles SE 8.1 mph - N/A   Mostly Cloudy
8:35 PM 37.4°F 33.8°F 87% 29.74 in 10.0 miles SE 8.1 mph - N/A   Overcast
8:55 PM 37.4°F 33.8°F 87% 29.77 in 10.0 miles SSE 5.8 mph - 0.01 in   Overcast
9:15 PM 37.4°F 33.8°F 87% 29.76 in 10.0 miles SE 9.2 mph - 0.02 in   Overcast
9:35 PM 37.4°F 33.8°F 87% 29.76 in 10.0 miles SE 5.8 mph - 0.02 in   Mostly Cloudy
9:55 PM 37.4°F 33.8°F 87% 29.77 in 10.0 miles ESE 3.5 mph - 0.02 in   Scattered Clouds
10:15 PM 37.4°F 33.8°F 87% 29.78 in 10.0 miles SE 9.2 mph - N/A   Mostly Cloudy
10:55 PM 37.4°F 33.8°F 87% 29.79 in 10.0 miles SE 11.5 mph 19.6 mph N/A   Overcast
11:15 PM 37.4°F 33.8°F 87% 29.81 in 10.0 miles SSE 6.9 mph - 0.01 in   Overcast
11:35 PM 37.4°F 33.8°F 87% 29.81 in 9.0 miles South 4.6 mph - 0.02 in   Overcast
11:55 PM 37.4°F 33.8°F 87% 29.80 in 10.0 miles SSE 6.9 mph - 0.02 in   Overcast
Moon Phase
Dec. 15 Dec. 20 Dec. 28 Jan. 04 Jan. 11
Sunrise:07:47 AM (PST) Moon Rise:09:38 AM (PST)12/15
Sunset:04:26 PM (PST) Moon Set:07:44 PM (PST)12/15

Copyright © 2014 The Weather Underground, Inc.